• In Deutschland
  • Länderverzeichnis
  • Für 7 Tage
  • Wassertemperatur
  • Satellitenkarten
  • Wetterkarte
  • Widgets
  • user-avatar
    Anmelden

    Stündliche Wetter Atar

    Heute, 22 Juli, Sonntag

    Zeit Temperatur Niederschläge Wind Luftdruck Luftfeuchtigkeit
    00:00 +38°C° 0 mm 3 m/S 725 mmHg 24%
    01:00 +37°C° 0 mm 4 m/S 725 mmHg 25%
    02:00 +37°C° 0 mm 4 m/S 725 mmHg 25%
    03:00 +36°C° 0 mm 4 m/S 725 mmHg 27%
    04:00 +35°C° 0 mm 4 m/S 725 mmHg 28%
    05:00 +34°C° 0 mm 3 m/S 725 mmHg 30%
    06:00 +35°C° 0 mm 3 m/S 725 mmHg 28%
    07:00 +36°C° 0 mm 3 m/S 726 mmHg 26%
    08:00 +37°C° 0 mm 3 m/S 726 mmHg 24%
    09:00 +38°C° 0 mm 4 m/S 726 mmHg 22%
    10:00 +40°C° 0 mm 4 m/S 726 mmHg 21%
    11:00 +41°C° 0 mm 4 m/S 726 mmHg 19%
    12:00 +42°C° 0 mm 4 m/S 726 mmHg 18%
    13:00 +42°C° 0 mm 5 m/S 725 mmHg 17%
    14:00 +43°C° 0 mm 5 m/S 725 mmHg 16%
    15:00 +43°C° 0 mm 5 m/S 725 mmHg 16%
    16:00 +43°C° 0 mm 5 m/S 724 mmHg 16%
    17:00 +42°C° 0 mm 5 m/S 724 mmHg 16%
    18:00 +42°C° 0 mm 5 m/S 724 mmHg 17%
    19:00 +41°C° 0 mm 5 m/S 724 mmHg 18%
    20:00 +40°C° 0 mm 5 m/S 725 mmHg 19%
    21:00 +40°C° 0 mm 6 m/S 725 mmHg 19%
    22:00 +40°C° 0 mm 6 m/S 725 mmHg 19%
    23:00 +40°C° 0 mm 6 m/S 726 mmHg 19%

    Morgen, 23 Juli, Montag

    Zeit Temperatur Niederschläge Wind Luftdruck Luftfeuchtigkeit
    00:00 +39°C° 0 mm 6 m/S 725 mmHg 20%
    01:00 +39°C° 0 mm 5 m/S 725 mmHg 21%
    02:00 +37°C° 0 mm 5 m/S 725 mmHg 21%
    03:00 +36°C° 0 mm 4 m/S 725 mmHg 23%
    04:00 +35°C° 0 mm 4 m/S 725 mmHg 25%
    05:00 +34°C° 0 mm 3 m/S 725 mmHg 27%
    06:00 +34°C° 0 mm 3 m/S 726 mmHg 26%
    07:00 +35°C° 0 mm 3 m/S 726 mmHg 26%
    08:00 +36°C° 0 mm 4 m/S 726 mmHg 25%
    09:00 +37°C° 0 mm 3 m/S 726 mmHg 23%
    10:00 +39°C° 0 mm 2 m/S 727 mmHg 20%
    11:00 +41°C° 0 mm 2 m/S 727 mmHg 18%
    12:00 +42°C° 0 mm 2 m/S 726 mmHg 16%
    13:00 +43°C° 0 mm 2 m/S 726 mmHg 15%
    14:00 +45°C° 0 mm 3 m/S 725 mmHg 14%
    15:00 +45°C° 0 mm 3 m/S 725 mmHg 13%
    16:00 +45°C° 0 mm 3 m/S 725 mmHg 13%
    17:00 +45°C° 0 mm 3 m/S 725 mmHg 13%
    18:00 +44°C° 0 mm 4 m/S 725 mmHg 14%
    19:00 +43°C° 0 mm 5 m/S 725 mmHg 15%
    20:00 +44°C° 0 mm 6 m/S 726 mmHg 16%
    21:00 +40°C° 0 mm 6 m/S 726 mmHg 21%
    22:00 +38°C° 0 mm 7 m/S 726 mmHg 26%
    23:00 +35°C° 0 mm 7 m/S 727 mmHg 30%

    übermorgen, 24 Juli, Dienstag

    Zeit Temperatur Niederschläge Wind Luftdruck Luftfeuchtigkeit
    00:00 +35°C° 0 mm 6 m/S 726 mmHg 32%
    01:00 +34°C° 0 mm 5 m/S 726 mmHg 33%
    02:00 +33°C° 0 mm 5 m/S 726 mmHg 35%
    03:00 +32°C° 0 mm 4 m/S 726 mmHg 36%
    04:00 +32°C° 0 mm 4 m/S 726 mmHg 38%
    05:00 +30°C° 0 mm 4 m/S 726 mmHg 40%
    06:00 +32°C° 0 mm 4 m/S 726 mmHg 38%
    07:00 +33°C° 0 mm 3 m/S 726 mmHg 36%
    08:00 +33°C° 0 mm 3 m/S 727 mmHg 34%
    09:00 +35°C° 0 mm 4 m/S 727 mmHg 30%
    10:00 +37°C° 0 mm 4 m/S 727 mmHg 27%
    11:00 +40°C° 0 mm 5 m/S 728 mmHg 23%
    12:00 +41°C° 0 mm 5 m/S 727 mmHg 22%
    13:00 +42°C° 0 mm 5 m/S 727 mmHg 21%
    14:00 +42°C° 0 mm 6 m/S 726 mmHg 20%
    15:00 +42°C° 0 mm 5 m/S 726 mmHg 20%
    16:00 +42°C° 0 mm 5 m/S 726 mmHg 20%
    17:00 +42°C° 0 mm 4 m/S 725 mmHg 20%
    18:00 +41°C° 0 mm 4 m/S 726 mmHg 22%
    19:00 +41°C° 0 mm 5 m/S 726 mmHg 23%
    20:00 +40°C° 0 mm 5 m/S 727 mmHg 24%
    21:00 +39°C° 0 mm 5 m/S 727 mmHg 25%
    22:00 +37°C° 0 mm 5 m/S 727 mmHg 26%
    23:00 +38°C° 0 mm 6 m/S 728 mmHg 27%

    25 Juli, Mittwoch

    Zeit Temperatur Niederschläge Wind Luftdruck Luftfeuchtigkeit
    00:00 +36°C° 0 mm 6 m/S 727 mmHg 30%
    01:00 +35°C° 0 mm 6 m/S 727 mmHg 33%
    02:00 +34°C° 0 mm 6 m/S 726 mmHg 36%
    03:00 +33°C° 0 mm 6 m/S 726 mmHg 38%
    04:00 +32°C° 0 mm 5 m/S 726 mmHg 40%
    05:00 +32°C° 0 mm 5 m/S 726 mmHg 42%
    06:00 +32°C° 0 mm 5 m/S 727 mmHg 40%
    07:00 +33°C° 0 mm 5 m/S 727 mmHg 38%
    08:00 +34°C° 0 mm 4 m/S 728 mmHg 35%
    09:00 +36°C° 0 mm 4 m/S 728 mmHg 31%
    10:00 +37°C° 0 mm 5 m/S 728 mmHg 27%
    11:00 +40°C° 0 mm 5 m/S 728 mmHg 23%
    12:00 +41°C° 0 mm 5 m/S 728 mmHg 21%
    13:00 +44°C° 0 mm 6 m/S 727 mmHg 19%
    14:00 +45°C° 0 mm 6 m/S 726 mmHg 17%
    15:00 +45°C° 0 mm 6 m/S 726 mmHg 16%
    16:00 +45°C° 0 mm 6 m/S 726 mmHg 16%
    17:00 +46°C° 0 mm 6 m/S 725 mmHg 15%
    18:00 +45°C° 0 mm 6 m/S 725 mmHg 16%
    19:00 +44°C° 0 mm 6 m/S 726 mmHg 16%
    20:00 +42°C° 0 mm 6 m/S 726 mmHg 17%
    21:00 +41°C° 0 mm 7 m/S 726 mmHg 19%
    22:00 +40°C° 0 mm 8 m/S 726 mmHg 22%
    23:00 +38°C° 0 mm 9 m/S 726 mmHg 24%

    26 Juli, Donnerstag

    Zeit Temperatur Niederschläge Wind Luftdruck Luftfeuchtigkeit
    00:00 +38°C° 0 mm 8 m/S 725 mmHg 25%
    01:00 +36°C° 0 mm 6 m/S 725 mmHg 26%
    02:00 +35°C° 0 mm 5 m/S 725 mmHg 27%
    03:00 +34°C° 0 mm 5 m/S 725 mmHg 28%
    04:00 +33°C° 0 mm 4 m/S 725 mmHg 30%
    05:00 +32°C° 0 mm 4 m/S 725 mmHg 31%
    06:00 +33°C° 0 mm 4 m/S 725 mmHg 28%
    07:00 +34°C° 0 mm 4 m/S 726 mmHg 25%
    08:00 +35°C° 0 mm 5 m/S 726 mmHg 23%
    09:00 +39°C° 0 mm 5 m/S 726 mmHg 18%
    10:00 +41°C° 0 mm 6 m/S 726 mmHg 14%
    11:00 +45°C° 0 mm 7 m/S 726 mmHg 10%
    12:00 +46°C° 0 mm 7 m/S 725 mmHg 9%
    13:00 +49°C° 0 mm 8 m/S 724 mmHg 8%
    14:00 +50°C° 0 mm 8 m/S 723 mmHg 6%
    15:00 +50°C° 0 mm 8 m/S 723 mmHg 6%
    16:00 +50°C° 0 mm 8 m/S 723 mmHg 6%
    17:00 +50°C° 0 mm 9 m/S 722 mmHg 6%
    18:00 +49°C° 0 mm 8 m/S 723 mmHg 7%
    19:00 +46°C° 0 mm 8 m/S 723 mmHg 8%
    20:00 +45°C° 0 mm 8 m/S 723 mmHg 8%
    21:00 +44°C° 0 mm 8 m/S 723 mmHg 10%
    22:00 +41°C° 0 mm 8 m/S 724 mmHg 12%
    23:00 +40°C° 0 mm 8 m/S 724 mmHg 14%

    27 Juli, Freitag

    Zeit Temperatur Niederschläge Wind Luftdruck Luftfeuchtigkeit
    00:00 +39°C° 0 mm 7 m/S 724 mmHg 15%
    01:00 +36°C° 0 mm 5 m/S 724 mmHg 17%
    02:00 +35°C° 0 mm 4 m/S 723 mmHg 18%
    03:00 +35°C° 0 mm 4 m/S 724 mmHg 20%
    04:00 +34°C° 0 mm 4 m/S 724 mmHg 22%
    05:00 +33°C° 0 mm 4 m/S 724 mmHg 24%
    06:00 +33°C° 0 mm 4 m/S 725 mmHg 23%
    07:00 +34°C° 0 mm 4 m/S 725 mmHg 22%
    08:00 +34°C° 0 mm 4 m/S 725 mmHg 21%
    09:00 +36°C° 0 mm 4 m/S 725 mmHg 19%
    10:00 +38°C° 0 mm 4 m/S 725 mmHg 17%
    11:00 +40°C° 0 mm 4 m/S 725 mmHg 15%
    12:00 +41°C° 0 mm 4 m/S 725 mmHg 14%
    13:00 +42°C° 0 mm 4 m/S 725 mmHg 14%
    14:00 +43°C° 0 mm 4 m/S 724 mmHg 14%
    15:00 +43°C° 0 mm 5 m/S 724 mmHg 15%
    16:00 +42°C° 0 mm 6 m/S 724 mmHg 17%
    17:00 +43°C° 0 mm 7 m/S 724 mmHg 19%
    18:00 +41°C° 0 mm 7 m/S 724 mmHg 21%
    19:00 +39°C° 0 mm 7 m/S 725 mmHg 24%
    20:00 +38°C° 0 mm 7 m/S 725 mmHg 26%
    21:00 +38°C° 0 mm 7 m/S 726 mmHg 28%
    22:00 +36°C° 0 mm 7 m/S 726 mmHg 29%
    23:00 +36°C° 0 mm 7 m/S 726 mmHg 31%
    Mehr zeigen